Regional Weather Roundup
Issued by NWS

Home | Current Version | Previous Version | Text Only | Print | Product List | Glossary Off
Versions: 1 2 3 4 5 6 7 8 9 10 11 12 13 14 15 16 17 18 19 20 21 22 23 24 25 26 27 28 29 30 31 32 33 34 35 36 37 38 39 40 41 42 43 44 45 46 47 48 49 50

000
ASUS43 KFSD 181510
RWRSD

WEATHER ROUNDUP FOR SOUTH DAKOTA
NATIONAL WEATHER SERVICE SIOUX FALLS SD
1000 AM CDT THU SEP 18 2014

NOTE: "FAIR" INDICATES FEW OR NO CLOUDS BELOW 12,000 FEET WITH NO
SIGNIFICANT WEATHER AND/OR OBSTRUCTIONS TO VISIBILITY.


SDZ001>005-009-010-012>017-181600-
NORTHWEST AND NORTH CENTRAL SOUTH DAKOTA

CITY           SKY/WX    TMP DP  RH WIND       PRES   REMARKS
BUFFALO          N/A     60  52  74 S10       29.77F
FAITH            N/A     61  55  81 S12       29.85F
MOBRIDGE       SUNNY     64  55  72 SE15      29.85F
$$

SDZ012>016-024>037-041>051-057-063-072>074-181600-
SOUTHWEST AND SOUTH CENTRAL SOUTH DAKOTA

CITY           SKY/WX    TMP DP  RH WIND       PRES   REMARKS
RAPID CTY ARPT SUNNY     62  55  77 SE6       29.86S
PIERRE         SUNNY     65  58  78 SE14      29.87F
CUSTER         SUNNY     72  44  36 CALM      30.00S
ELLSWORTH AFB  SUNNY     64  55  72 S5        29.85F
PHILIP         CLOUDY    65  60  84 SE9       29.86S
PINE RIDGE     SUNNY     67  60  78 S13       29.90F
WINNER         FAIR      68  61  78 S12       29.93R
$$

SDZ004>011-016>023-039-040-181600-
NORTHEAST SOUTH DAKOTA

CITY           SKY/WX    TMP DP  RH WIND       PRES   REMARKS
ABERDEEN       SUNNY    N/A N/A N/A S9        29.95F
WATERTOWN      SUNNY     63  56  78 S13       29.99S
SISSETON         N/A     52  52 100 S10       30.00S
$$

SDZ017-020-022-023-036>040-048>070-181600-
SOUTHEAST SOUTH DAKOTA

CITY           SKY/WX    TMP DP  RH WIND       PRES   REMARKS
SIOUX FALLS    MOSUNNY   67  59  75 S13       30.02R
HURON          PTSUNNY   62  56  80 S9        29.96S THUNDER
CHAMBERLAIN    LGT RAIN  59  58  96 SE14      29.91F
MITCHELL       PTSUNNY   63  59  87 SE9       29.98S
YANKTON        MOSUNNY   64  63  94 SE10      30.00S
$$

ABBREVIATIONS USED IN REMARKS
   TC - TEMPERATURE IN CELSIUS
  WCI - WIND CHILL INDEX
   HX - HEAT INDEX
  VSB - VISIBILITY




USA.gov is the U.S. government's official web portal to all federal, state and local government web resources and services.